[[{"header":{"parameterUnit":"m.s-1","parameterCategory":1,"la1":30.2991,"la2":30.254,"lo1":-89.0895,"lo2":-89.0444,"dy":0.0017,"dx":0.0017,"nx":28,"ny":28,"refTime":"2025-04-13T21:00:00:Z","depth":0,"parameterNumber":2,"parameterNumberName":"U-component_of_WINDS"},"data":[0,0,0,0,0,0,0,0,0,0,0,0,0,0,0,0,0,0,0,0,0,0,0,0,0,0,0,0,0,0,0,0,0,0,0,0,0,0,0,0,0,0,0,0,0,0,0,0,0,0,0,0,0,0,0,0,0,0,3.1847,3.1849,0,3.1982,3.1983,3.1985,3.1962,3.1959,3.1957,3.1955,3.2091,3.2097,3.2103,0,0,0,0,0,0,0,0,0,0,0,0,0,3.1567,3.1573,3.1847,3.1849,3.1851,3.1981,3.1983,3.1985,3.1962,3.1959,3.1956,3.1954,3.2089,3.2096,3.2103,0,0,0,0,0,0,0,0,0,0,0,0,0,3.1694,3.1574,3.1847,3.1855,3.1857,3.1981,3.1983,3.1986,3.1963,3.1959,3.1956,3.1952,3.2087,3.2095,3.2104,3.2228,0,0,3.2131,3.2134,0,0,0,0,0,0,0,0,3.1687,3.1704,3.1852,3.1855,3.1857,3.1951,3.1934,3.2067,3.1964,3.1923,3.1955,3.1951,3.2047,3.2059,3.2092,3.2234,3.224,3.2131,3.2137,3.214,3.2143,0,0,0,0,0,0,0,3.1678,3.1698,3.19,3.1854,3.1857,3.1851,3.1865,3.1959,3.2003,3.1926,3.1925,3.1941,3.2048,3.2084,3.2095,3.2242,3.2131,3.2139,3.2144,3.2148,3.2488,3.2492,0,0,0,0,0,0,3.1667,3.1691,3.1896,3.1904,3.1762,3.1859,3.1874,3.1925,3.2002,3.201,3.1944,3.1939,3.2071,3.2085,3.21,3.2246,3.214,3.2149,3.2154,3.2485,3.2489,3.2493,0,0,0,0,0,0,3.1661,3.1686,3.1891,3.1798,3.1823,3.1867,3.1924,3.1929,3.1965,3.2015,3.2023,3.1972,3.2068,3.2087,3.2195,3.2251,3.2153,3.216,3.248,3.2486,3.2491,3.2543,0,0,0,0,0,0,3.1653,3.1684,3.1732,3.1799,3.1828,3.1985,3.1927,3.1934,3.198,3.1975,3.2044,3.2052,3.2067,3.2182,3.2204,3.2261,3.2167,3.2475,3.2483,3.249,3.2536,3.255,3.2561,0,0,0,0,0,3.1644,3.1742,3.1735,3.176,3.189,3.1989,3.2005,3.2021,3.1985,3.2033,3.2065,3.205,3.2242,3.2194,3.2218,3.2278,3.2472,3.2481,3.2489,3.2531,3.2547,3.2561,0,0,0,0,0,0,3.1681,3.1751,3.1744,3.1867,3.1922,3.1984,3.2046,3.2038,3.2104,3.2097,3.2113,3.2129,3.2237,3.2269,3.2214,3.24,3.2352,3.2365,3.2375,3.2391,3.2403,3.2392,3.2174,0,0,0,0,0,3.1704,3.1779,3.1836,3.1939,3.1967,3.2002,3.2046,3.2053,3.211,3.2133,3.2173,3.2228,3.2301,3.2348,3.2418,3.2542,3.2554,3.2595,3.2607,3.2617,3.2628,3.2692,3.2709,3.2522,3.2522,3.2522,0,0,3.1752,3.1799,3.1846,3.1948,3.1991,3.2067,3.2022,3.2105,3.216,3.2145,3.2248,3.228,3.2343,3.2458,3.2511,3.2488,3.2683,3.2628,3.2636,3.2641,3.2702,3.272,3.2736,3.2528,3.2527,3.2526,0,0,3.1876,3.1922,3.201,3.2054,3.212,3.2142,3.2164,3.2227,3.2247,3.2351,3.234,3.2406,3.2532,3.2576,3.2615,3.2753,3.2741,3.2776,3.2839,3.2901,3.2916,3.2929,3.2974,3.2991,3.2787,3.2787,3.2787,0,3.1927,3.2041,3.2057,3.214,3.2184,3.2174,3.2262,3.2304,3.239,3.2419,3.2393,3.2547,3.2589,3.2713,3.2746,3.2779,3.2802,3.2767,3.2913,3.2926,3.2938,3.2982,3.2999,3.2791,3.279,3.279,3.279,0,3.2098,3.2177,3.2241,3.2323,3.2374,3.246,3.2487,3.2537,3.2539,3.2563,3.2667,3.2717,3.2795,3.2825,3.2829,3.2948,3.2931,3.2909,3.286,3.2959,3.3,3.3018,3.2796,3.2794,3.2793,3.2793,0,0,3.225,3.2338,3.236,3.2396,3.2467,3.2528,3.2612,3.2688,3.2728,3.2787,3.2856,3.2961,3.294,3.2984,3.2992,3.3047,3.3148,3.3017,3.3019,3.3036,3.3278,3.3292,3.3312,3.3141,3.3145,3.3147,3.3271,0,3.2378,3.2527,3.2542,3.2674,3.2745,3.2736,3.2809,3.2859,3.2884,3.2947,3.2974,3.3046,3.3015,3.304,3.3095,3.3125,3.3196,3.3116,3.3203,3.3205,3.3184,3.3334,3.335,3.3464,3.3288,3.3291,3.3293,0,3.2548,3.261,3.2749,3.2807,3.2837,3.2902,3.2971,3.3033,3.3089,3.3102,3.315,3.3151,3.3235,3.3185,3.3299,3.3244,3.328,3.33,3.3305,3.3311,3.3253,3.334,3.3502,3.3518,3.3319,3.3317,3.3315,0,3.2639,3.2759,3.2856,3.2887,3.2958,3.3003,3.3035,3.3088,3.3131,3.3191,3.3219,3.3289,3.3326,3.3379,3.3397,3.336,3.351,3.3462,3.3521,3.352,3.3551,3.3548,3.3716,3.358,3.358,3.3579,3.3579,0,3.2779,3.2863,3.2897,3.2957,3.305,3.3067,3.3158,3.3187,3.3234,3.3297,3.3295,3.3354,3.3376,3.3439,3.3454,3.3544,3.3562,3.3573,3.3576,3.3572,3.357,3.3593,3.3585,3.3584,3.3583,3.3582,3.3581,0,3.2896,3.2923,3.3028,3.3086,3.3103,3.3168,3.3217,3.3274,3.3297,3.3377,3.3397,3.3433,3.3506,3.3531,3.362,3.3629,3.3733,3.3731,3.3714,3.3713,3.377,3.3763,3.3957,3.3982,3.3832,3.3834,3.3835,0,3.2982,3.3046,3.3111,3.3153,3.3186,3.3255,3.3299,3.3317,3.3363,3.343,3.3477,3.355,3.3608,3.3725,3.3759,3.3826,3.3822,3.3886,3.3832,3.3825,3.3819,3.3813,3.3818,3.3895,3.3896,3.3898,3.3899,0,3.3129,3.3139,3.3203,3.327,3.3323,3.3377,3.343,3.3464,3.349,3.3541,3.3615,3.3661,3.3751,3.3821,3.3889,3.392,3.3913,3.3916,3.3932,3.3927,3.3913,3.3917,3.3737,3.391,3.3909,3.3908,3.3908,3.3907,3.3231,3.3286,3.3339,3.3409,3.3451,3.3499,3.3554,3.3583,3.3646,3.372,3.3727,3.3807,3.3858,3.3949,3.3983,3.4044,3.4026,3.4051,3.4056,3.4061,3.4064,3.3906,3.4057,3.4057,3.4056,3.4056,3.4056,0,3.3375,3.3408,3.3473,3.3545,3.36,3.3589,3.3646,3.3692,3.3762,3.3811,3.3868,3.3952,3.402,3.4058,3.4126,3.4167,3.4165,3.4184,3.4179,3.4186,3.4078,3.4055,3.4184,3.4184,3.4184,3.4184,3.4184,3.4184,3.3456,3.3547,3.3563,3.3674,3.3707,3.3784,3.3817,3.3861,3.3899,3.3993,3.4049,3.4074,3.4118,3.4188,3.4249,3.4259,3.4282,3.4302,3.4309,3.4207,3.4194,3.4181,3.4159,3.4308,3.4308,3.4411,3.4412,3.4413]},{"header":{"parameterUnit":"m.s-1","parameterCategory":1,"la1":30.2991,"la2":30.254,"lo1":-89.0895,"lo2":-89.0444,"dy":0.0017,"dx":0.0017,"nx":28,"ny":28,"refTime":"2025-04-13T21:00:00:Z","depth":0,"parameterNumber":3,"parameterNumberName":"V-component_of_WINDS"},"data":[0,0,0,0,0,0,0,0,0,0,0,0,0,0,0,0,0,0,0,0,0,0,0,0,0,0,0,0,0,0,0,0,0,0,0,0,0,0,0,0,0,0,0,0,0,0,0,0,0,0,0,0,0,0,0,0,0,0,3.6355,3.6356,0,3.6442,3.6443,3.6444,3.6407,3.6405,3.6403,3.6401,3.6486,3.649,3.6495,0,0,0,0,0,0,0,0,0,0,0,0,0,3.6151,3.6155,3.6355,3.6356,3.6357,3.6442,3.6443,3.6445,3.6408,3.6405,3.6403,3.64,3.6485,3.649,3.6495,0,0,0,0,0,0,0,0,0,0,0,0,0,3.6239,3.6156,3.6355,3.6349,3.635,3.6442,3.6444,3.6445,3.6408,3.6405,3.6402,3.6399,3.6483,3.6489,3.6496,3.6597,0,0,3.6515,3.6518,0,0,0,0,0,0,0,0,3.6234,3.6247,3.6349,3.635,3.6351,3.6411,3.6403,3.6496,3.6409,3.6386,3.6401,3.6398,3.6463,3.6471,3.6494,3.6601,3.6605,3.6515,3.6519,3.6522,3.6524,0,0,0,0,0,0,0,3.6228,3.6243,3.639,3.6351,3.6351,3.634,3.635,3.642,3.6441,3.6388,3.6385,3.6396,3.6463,3.6488,3.6496,3.6606,3.6515,3.6521,3.6525,3.6527,3.6798,3.6801,0,0,0,0,0,0,3.6223,3.6238,3.6387,3.6392,3.6284,3.6347,3.6357,3.6395,3.644,3.6444,3.6399,3.6394,3.6479,3.6489,3.6499,3.6619,3.6522,3.6528,3.6531,3.6794,3.6798,3.6802,0,0,0,0,0,0,3.6218,3.6236,3.6383,3.6314,3.6332,3.6354,3.6396,3.6398,3.6423,3.6449,3.6452,3.6421,3.6477,3.649,3.6573,3.6622,3.6531,3.6536,3.679,3.6796,3.68,3.6862,0,0,0,0,0,0,3.6213,3.6235,3.6275,3.6316,3.6336,3.6458,3.6399,3.6402,3.6435,3.6429,3.647,3.6474,3.6475,3.6564,3.6579,3.6629,3.6541,3.6786,3.6793,3.6799,3.6855,3.6868,3.6879,0,0,0,0,0,3.6206,3.6289,3.6278,3.6296,3.6387,3.6461,3.6472,3.6473,3.6439,3.6478,3.6494,3.6473,3.6614,3.6572,3.6589,3.6642,3.6783,3.6791,3.6798,3.685,3.6866,3.6879,0,0,0,0,0,0,3.6253,3.6294,3.6282,3.6381,3.6418,3.6454,3.6505,3.649,3.6536,3.6529,3.6527,3.6537,3.6622,3.664,3.6593,3.6741,3.6693,3.6704,3.6726,3.6741,3.6753,3.6746,3.6547,0,0,0,0,0,3.6275,3.6333,3.6365,3.6449,3.6468,3.6483,3.6515,3.6513,3.655,3.6565,3.6587,3.6623,3.6675,3.6709,3.6759,3.6858,3.6865,3.6902,3.6914,3.6923,3.6933,3.6984,3.7,3.6827,3.6827,3.6827,0,0,3.6321,3.6351,3.6387,3.646,3.6488,3.6545,3.6497,3.6561,3.6603,3.6574,3.6654,3.6671,3.671,3.6801,3.6842,3.6819,3.6982,3.6933,3.6941,3.6945,3.6994,3.701,3.7024,3.6832,3.6832,3.6831,0,0,3.6434,3.6464,3.6536,3.6565,3.6608,3.6617,3.6635,3.6673,3.6684,3.6764,3.6743,3.6792,3.6883,3.6911,3.6937,3.7059,3.7039,3.7075,3.7137,3.7187,3.72,3.7212,3.7254,3.7269,3.7084,3.7084,3.7085,0,3.6486,3.6574,3.6575,3.664,3.6671,3.6649,3.6721,3.6748,3.6805,3.6826,3.6799,3.6911,3.6936,3.7032,3.7061,3.7084,3.7102,3.707,3.7199,3.7211,3.7222,3.7261,3.7277,3.7088,3.7088,3.7087,3.7087,0,3.6634,3.6695,3.6748,3.6804,3.6841,3.6909,3.6918,3.6956,3.6949,3.6961,3.7041,3.707,3.7124,3.7146,3.7141,3.7241,3.7225,3.7199,3.715,3.7242,3.7279,3.7294,3.7094,3.7092,3.7091,3.709,0,0,3.678,3.6835,3.6854,3.6878,3.6924,3.697,3.7036,3.7089,3.712,3.716,3.7213,3.7289,3.7265,3.7294,3.7291,3.7336,3.7427,3.7303,3.7304,3.7324,3.7536,3.7555,3.7573,3.7415,3.7418,3.742,3.7533,0,3.6895,3.7013,3.7015,3.7121,3.7176,3.7155,3.7212,3.7245,3.7256,3.7303,3.7315,3.7369,3.7333,3.735,3.7393,3.7407,3.747,3.7399,3.7463,3.7465,3.7453,3.7593,3.7613,3.7718,3.7547,3.755,3.7552,0,3.7046,3.7091,3.7204,3.7239,3.7262,3.7314,3.7362,3.7407,3.7443,3.7448,3.748,3.747,3.7535,3.7485,3.7572,3.7524,3.755,3.756,3.7564,3.7569,3.7513,3.76,3.7751,3.7766,3.7575,3.7573,3.7571,0,3.7139,3.7228,3.7306,3.7327,3.7371,3.7407,3.7427,3.7459,3.7491,3.7532,3.7552,3.76,3.7626,3.7662,3.7665,3.7628,3.7752,3.7703,3.7756,3.7756,3.7783,3.7781,3.7939,3.7802,3.7801,3.7801,3.7801,0,3.7267,3.7337,3.7348,3.7396,3.7472,3.7472,3.7547,3.7563,3.7592,3.7641,3.7625,3.7671,3.7671,3.7718,3.7719,3.779,3.7802,3.7807,3.7806,3.7808,3.7807,3.7824,3.7816,3.7805,3.7804,3.7803,3.7803,0,3.7384,3.7395,3.7479,3.7513,3.7523,3.7577,3.7606,3.765,3.766,3.7722,3.7736,3.7751,3.7804,3.781,3.7872,3.7873,3.7958,3.795,3.7947,3.7945,3.7997,3.7992,3.8171,3.8194,3.8043,3.8044,3.8046,0,3.7465,3.7518,3.7558,3.759,3.7612,3.7664,3.7696,3.7697,3.7731,3.7774,3.7812,3.7864,3.7906,3.7992,3.8007,3.8053,3.8045,3.8105,3.8052,3.8051,3.8044,3.8041,3.8045,3.8115,3.8117,3.8118,3.8119,0,3.7606,3.7608,3.7656,3.7705,3.7744,3.7782,3.7818,3.7845,3.785,3.7888,3.7943,3.7975,3.8038,3.8089,3.8135,3.8152,3.8136,3.8136,3.815,3.8152,3.8146,3.8148,3.7973,3.8131,3.813,3.8129,3.8129,3.8128,3.7706,3.7751,3.7786,3.7839,3.7866,3.7899,3.7942,3.7958,3.8004,3.8056,3.8053,3.8113,3.8144,3.8204,3.8225,3.827,3.825,3.8272,3.8277,3.8282,3.8286,3.814,3.8279,3.8278,3.8278,3.8278,3.8277,0,3.7845,3.7866,3.7915,3.7965,3.8006,3.7989,3.8027,3.8062,3.8115,3.8147,3.8188,3.8249,3.8298,3.8317,3.8364,3.8396,3.8389,3.8408,3.8405,3.8409,3.8303,3.8285,3.8412,3.8412,3.8412,3.8412,3.8412,3.8412,3.7922,3.7997,3.8003,3.809,3.811,3.8169,3.8192,3.8222,3.8247,3.8317,3.8358,3.837,3.8395,3.8444,3.8487,3.8491,3.8508,3.853,3.853,3.843,3.8417,3.8404,3.8387,3.8534,3.8534,3.8632,3.8633,3.8634]}]]